This is the latest recevied weather packets stored in our database for station/object N6GPM. If no packets are shown the sender has not sent any weather packets the latest 10 day(s).
| Time | Temp. | Humidity | Pressure | Rain* | Wind** | Luminosity | Snow |
|---|---|---|---|---|---|---|---|
| 1787951440 | 37.78° C | 29% | 1016.7 hPa | 0 mm | - | 902 W/m² | - |
| 1787951136 | 37.78° C | 28% | 1016.7 hPa | 0 mm | - | 916 W/m² | - |
| 1787950832 | 37.78° C | 27% | 1016.6 hPa | 0 mm | - | 932 W/m² | - |
| 1787950526 | 37.22° C | 27% | 1016.8 hPa | 0 mm | - | 946 W/m² | - |
| 1787950217 | 37.22° C | 27% | 1016.7 hPa | 0 mm | - | 962 W/m² | - |
| 1787949914 | 37.22° C | 27% | 1016.6 hPa | 0 mm | - | 967 W/m² | - |
| 1787949608 | 37.22° C | 27% | 1016.8 hPa | 0 mm | - | 980 W/m² | - |
| 1787949303 | 37.22° C | 26% | 1017 hPa | 0 mm | - | 984 W/m² | - |
| 1787948997 | 37.22° C | 27% | 1016.8 hPa | 0 mm | - | 990 W/m² | - |
| 1787948693 | 37.78° C | 26% | 1016.9 hPa | 0 mm | - | 997 W/m² | - |
| 1787948388 | 37.22° C | 26% | 1016.9 hPa | 0 mm | - | 1000 W/m² | - |
| 1787948088 | 37.78° C | 25% | 1017.3 hPa | 0 mm | - | 1002 W/m² | - |
| 1787947782 | 37.78° C | 24% | 1017 hPa | 0 mm | - | 1005 W/m² | - |
| 1787947480 | 37.78° C | 25% | 1017.2 hPa | 0 mm | - | 1001 W/m² | - |
| 1787947175 | 37.22° C | 25% | 1017.3 hPa | 0 mm | - | 1013 W/m² | - |
| 1787946874 | 37.22° C | 23% | 1017.4 hPa | 0 mm | - | 1015 W/m² | - |
| 1787946572 | 36.67° C | 24% | 1017.5 hPa | 0 mm | - | 952 W/m² | - |
| 1787946268 | 36.67° C | 24% | 1017.5 hPa | 0 mm | - | 1033 W/m² | - |
| 1787945967 | 37.22° C | 25% | 1017.5 hPa | 0 mm | - | 839 W/m² | - |
| 1787945662 | 36.67° C | 28% | 1017.4 hPa | 0 mm | - | 1035 W/m² | - |
| 1787945357 | 36.67° C | 30% | 1017.5 hPa | 0 mm | - | 1055 W/m² | - |
| 1787945053 | 36.67° C | 30% | 1017.7 hPa | 0 mm | - | 1059 W/m² | - |
| 1787944750 | 37.22° C | 30% | 1017.8 hPa | 0 mm | - | 1025 W/m² | - |
| 1787944446 | 37.22° C | 30% | 1017.7 hPa | 0 mm | - | 930 W/m² | - |
| 1787944141 | 37.22° C | 30% | 1017.6 hPa | 0 mm | - | 990 W/m² | - |
* Rain latest hour (hover to see other rain measurements)
** Current wind speed in m/s (hover to see current wind gust speed)